[[{"header":{"parameterUnit":"m.s-1","parameterCategory":2,"la1":30.2991,"la2":30.254,"lo1":-89.0895,"lo2":-89.0444,"dy":0.0017,"dx":0.0017,"nx":28,"ny":28,"refTime":"2023-03-13T21:00:00:Z","depth":"0","parameterNumber":2,"parameterNumberName":"U-component_of_CURRENTS"},"data":[0,0,0,0,0,0,0,0,0,0,0,0,0,0,0,0,0,0,0,0,0,0,0,0,0,0,0,0,0,0,0,0,0,0,0,0,0,0,0,0,0,0,0,0,0,0,0,0,0,0,0,0,0,0,0,0,0,0,-0.2529,-0.253,0,-0.2569,-0.2569,-0.257,-0.2552,-0.2551,-0.255,-0.255,-0.2536,-0.2536,-0.2537,0,0,0,0,0,0,0,0,0,0,0,0,0,-0.2426,-0.2428,-0.2529,-0.253,-0.2531,-0.2569,-0.2569,-0.257,-0.2552,-0.2551,-0.255,-0.2549,-0.2536,-0.2536,-0.2537,0,0,0,0,0,0,0,0,0,0,0,0,0,-0.2466,-0.2429,-0.2529,-0.2529,-0.2529,-0.2569,-0.2569,-0.257,-0.2552,-0.2551,-0.255,-0.2549,-0.2536,-0.2536,-0.2537,-0.256,0,0,-0.2538,-0.2538,0,0,0,0,0,0,0,0,-0.2464,-0.2469,-0.2528,-0.2529,-0.253,-0.2557,-0.2528,-0.2565,-0.2552,-0.254,-0.255,-0.2548,-0.2541,-0.2541,-0.2547,-0.256,-0.2559,-0.2538,-0.2538,-0.2539,-0.2539,0,0,0,0,0,0,0,-0.2461,-0.2468,-0.2542,-0.2529,-0.253,-0.2523,-0.2527,-0.2535,-0.2542,-0.2541,-0.2541,-0.2551,-0.254,-0.2547,-0.2547,-0.2559,-0.2538,-0.2539,-0.2539,-0.2539,-0.2591,-0.2593,0,0,0,0,0,0,-0.2465,-0.2465,-0.2541,-0.2543,-0.2497,-0.2526,-0.2531,-0.2547,-0.2544,-0.2543,-0.2551,-0.255,-0.2547,-0.2546,-0.2546,-0.2577,-0.2539,-0.2539,-0.2539,-0.259,-0.2592,-0.2593,0,0,0,0,0,0,-0.2463,-0.2471,-0.2539,-0.2507,-0.2515,-0.2529,-0.2547,-0.2548,-0.2552,-0.2553,-0.255,-0.2554,-0.2546,-0.2545,-0.2555,-0.2576,-0.2539,-0.254,-0.2589,-0.2591,-0.2592,-0.2637,0,0,0,0,0,0,-0.2459,-0.247,-0.2479,-0.2508,-0.2518,-0.2572,-0.2549,-0.255,-0.2561,-0.2559,-0.2554,-0.2552,-0.2545,-0.2554,-0.2555,-0.2576,-0.254,-0.2588,-0.259,-0.2592,-0.2635,-0.264,-0.2646,0,0,0,0,0,-0.2456,-0.2476,-0.2479,-0.2488,-0.2531,-0.2573,-0.2578,-0.2581,-0.2562,-0.2576,-0.2566,-0.2552,-0.2568,-0.2555,-0.2556,-0.2578,-0.2587,-0.2589,-0.2592,-0.2632,-0.2639,-0.2645,0,0,0,0,0,0,-0.2435,-0.2478,-0.2481,-0.2513,-0.2544,-0.2571,-0.2582,-0.2584,-0.2588,-0.2577,-0.2565,-0.2564,-0.2582,-0.2575,-0.2561,-0.26,-0.2576,-0.2579,-0.2606,-0.2613,-0.2619,-0.2619,-0.254,0,0,0,0,0,-0.2437,-0.2459,-0.2502,-0.2524,-0.2541,-0.256,-0.2573,-0.2581,-0.2593,-0.2592,-0.259,-0.2587,-0.2597,-0.2599,-0.2606,-0.2626,-0.2616,-0.2641,-0.2647,-0.2651,-0.2653,-0.2659,-0.2665,-0.2601,-0.2601,-0.2601,0,0,-0.2432,-0.2459,-0.247,-0.2521,-0.2538,-0.2576,-0.2564,-0.2593,-0.2619,-0.2591,-0.2612,-0.2607,-0.2607,-0.263,-0.2638,-0.2624,-0.2666,-0.2655,-0.2659,-0.2658,-0.2663,-0.2669,-0.2674,-0.2603,-0.2603,-0.2602,0,0,-0.2443,-0.2462,-0.2488,-0.2522,-0.2563,-0.2583,-0.2593,-0.2626,-0.2634,-0.266,-0.2646,-0.2654,-0.2666,-0.2674,-0.2678,-0.2719,-0.2696,-0.272,-0.2747,-0.2754,-0.2759,-0.2763,-0.2761,-0.2764,-0.2721,-0.2721,-0.2721,0,-0.2433,-0.2475,-0.2502,-0.2543,-0.2569,-0.2587,-0.2625,-0.2648,-0.2677,-0.2688,-0.2671,-0.2694,-0.2691,-0.2722,-0.2733,-0.2733,-0.2724,-0.2721,-0.276,-0.2764,-0.2768,-0.2764,-0.2768,-0.2724,-0.2724,-0.2723,-0.2723,0,-0.2471,-0.2505,-0.2524,-0.2579,-0.2615,-0.2648,-0.2693,-0.2717,-0.2721,-0.2739,-0.2766,-0.2763,-0.2772,-0.2779,-0.2766,-0.2797,-0.2779,-0.2767,-0.2741,-0.2777,-0.2771,-0.2774,-0.2727,-0.2726,-0.2726,-0.2725,0,0,-0.2437,-0.2531,-0.2534,-0.2568,-0.2634,-0.2668,-0.2718,-0.2769,-0.2797,-0.2813,-0.2844,-0.2857,-0.2843,-0.2846,-0.2836,-0.2841,-0.2859,-0.2812,-0.2811,-0.2806,-0.2863,-0.2846,-0.2847,-0.2848,-0.2849,-0.2849,-0.2849,0,-0.2451,-0.2527,-0.2572,-0.2637,-0.2678,-0.2721,-0.277,-0.2818,-0.2845,-0.2881,-0.2883,-0.2904,-0.2874,-0.2873,-0.2876,-0.2869,-0.2867,-0.2859,-0.2832,-0.2832,-0.2809,-0.2851,-0.2766,-0.2758,-0.2852,-0.2852,-0.2852,0,-0.2464,-0.2516,-0.2581,-0.2671,-0.2693,-0.2731,-0.2802,-0.2851,-0.2911,-0.293,-0.2948,-0.2952,-0.2968,-0.2931,-0.293,-0.2923,-0.2892,-0.2879,-0.2879,-0.2848,-0.282,-0.2738,-0.276,-0.2731,-0.2856,-0.2856,-0.2856,0,-0.2418,-0.2516,-0.2564,-0.2595,-0.2702,-0.2729,-0.2776,-0.2849,-0.2893,-0.295,-0.2976,-0.2999,-0.3004,-0.2985,-0.2957,-0.2941,-0.2952,-0.2927,-0.2882,-0.288,-0.2796,-0.2786,-0.2782,-0.2915,-0.2915,-0.2915,-0.2916,0,-0.2409,-0.2445,-0.2542,-0.2569,-0.2623,-0.2704,-0.2759,-0.2813,-0.2892,-0.2937,-0.2982,-0.3012,-0.3015,-0.3023,-0.2984,-0.2951,-0.297,-0.2896,-0.2885,-0.281,-0.2802,-0.2762,-0.2754,-0.2915,-0.2915,-0.2915,-0.2915,0,-0.2346,-0.2415,-0.2471,-0.2572,-0.2601,-0.2631,-0.2733,-0.2773,-0.286,-0.2919,-0.2934,-0.3021,-0.3042,-0.3045,-0.3029,-0.2983,-0.2906,-0.293,-0.2843,-0.2822,-0.2751,-0.2748,-0.2713,-0.2637,-0.2884,-0.2884,-0.2884,0,-0.2321,-0.2343,-0.244,-0.246,-0.2497,-0.256,-0.26,-0.2721,-0.2769,-0.2912,-0.2928,-0.3002,-0.3036,-0.304,-0.2993,-0.295,-0.289,-0.2825,-0.2781,-0.2748,-0.2737,-0.2718,-0.2653,-0.2683,-0.2681,-0.268,-0.2678,0,-0.225,-0.2277,-0.2313,-0.2366,-0.2404,-0.246,-0.2528,-0.257,-0.271,-0.279,-0.2884,-0.2937,-0.2991,-0.2949,-0.2921,-0.2862,-0.2758,-0.2792,-0.2775,-0.2601,-0.2561,-0.2481,-0.2684,-0.2665,-0.2666,-0.2667,-0.2668,-0.2668,-0.2162,-0.2163,-0.2206,-0.2244,-0.2289,-0.232,-0.2328,-0.2439,-0.2519,-0.2632,-0.2758,-0.2847,-0.2869,-0.2843,-0.2796,-0.2676,-0.2676,-0.2576,-0.2581,-0.257,-0.248,-0.2662,-0.2624,-0.2625,-0.2626,-0.2626,-0.2627,0,-0.2049,-0.2061,-0.2086,-0.2121,-0.2114,-0.2187,-0.2249,-0.2249,-0.231,-0.249,-0.259,-0.2718,-0.2671,-0.2684,-0.2599,-0.2492,-0.2402,-0.2411,-0.2351,-0.2296,-0.2466,-0.2441,-0.2341,-0.2341,-0.2341,-0.2341,-0.2341,-0.2341,-0.1985,-0.1961,-0.1983,-0.1931,-0.1947,-0.1903,-0.1905,-0.1948,-0.2051,-0.2197,-0.2371,-0.2556,-0.2573,-0.2678,-0.2522,-0.239,-0.2283,-0.2218,-0.221,-0.2332,-0.2347,-0.2362,-0.2337,-0.2216,-0.2216,-0.1968,-0.1966,-0.1965]},{"header":{"parameterUnit":"m.s-1","parameterCategory":2,"la1":30.2991,"la2":30.254,"lo1":-89.0895,"lo2":-89.0444,"dy":0.0017,"dx":0.0017,"nx":28,"ny":28,"refTime":"2023-03-13T21:00:00:Z","depth":"0","parameterNumber":3,"parameterNumberName":"V-component_of_CURRENTS"},"data":[0,0,0,0,0,0,0,0,0,0,0,0,0,0,0,0,0,0,0,0,0,0,0,0,0,0,0,0,0,0,0,0,0,0,0,0,0,0,0,0,0,0,0,0,0,0,0,0,0,0,0,0,0,0,0,0,0,0,-0.0266,-0.0265,0,-0.0169,-0.0168,-0.0167,-0.0107,-0.0107,-0.0107,-0.0106,-0.0019,-0.0017,-0.0015,0,0,0,0,0,0,0,0,0,0,0,0,0,-0.0343,-0.0342,-0.0266,-0.0265,-0.0264,-0.0169,-0.0168,-0.0167,-0.0107,-0.0107,-0.0107,-0.0106,-0.0019,-0.0017,-0.0014,0,0,0,0,0,0,0,0,0,0,0,0,0,-0.0284,-0.0342,-0.0267,-0.0223,-0.0219,-0.017,-0.0168,-0.0166,-0.0107,-0.0107,-0.0106,-0.0106,-0.002,-0.0017,-0.0014,-0.0002,0,0,-0.0004,-0.0003,0,0,0,0,0,0,0,0,-0.0287,-0.0281,-0.0231,-0.0226,-0.0221,-0.0151,-0.0163,-0.0112,-0.0107,-0.0149,-0.0106,-0.0106,-0.0064,-0.0058,-0.0039,0.0002,0.0006,-0.0004,-0.0002,-0.0001,-0.0,0,0,0,0,0,0,0,-0.0291,-0.0284,-0.0227,-0.023,-0.0224,-0.0189,-0.0181,-0.0153,-0.011,-0.0145,-0.0141,-0.0131,-0.0062,-0.0042,-0.0037,0.0007,-0.0004,-0.0001,0.0,0.0002,0.006,0.0059,0,0,0,0,0,0,-0.0308,-0.0289,-0.023,-0.0224,-0.0255,-0.0189,-0.0179,-0.0173,-0.0109,-0.01,-0.0132,-0.0129,-0.0048,-0.004,-0.0033,-0.0017,-0.0001,0.0002,0.0004,0.006,0.006,0.0059,0,0,0,0,0,0,-0.031,-0.0304,-0.0234,-0.0255,-0.0243,-0.0188,-0.0181,-0.0171,-0.0152,-0.0099,-0.0089,-0.0123,-0.0047,-0.0038,-0.0009,-0.0013,0.0003,0.0006,0.006,0.006,0.0059,0.0016,0,0,0,0,0,0,-0.0313,-0.0306,-0.0309,-0.0256,-0.0243,-0.0215,-0.0181,-0.017,-0.0147,-0.0142,-0.0089,-0.008,-0.0046,-0.0014,-0.0006,-0.0009,0.0009,0.0061,0.006,0.006,0.0018,0.0014,0.0011,0,0,0,0,0,-0.0316,-0.0324,-0.031,-0.0303,-0.0249,-0.0216,-0.0206,-0.0165,-0.0147,-0.0145,-0.0105,-0.0081,-0.0013,-0.0012,-0.0002,-0.0004,0.0061,0.006,0.006,0.0019,0.0015,0.0011,0,0,0,0,0,0,-0.0357,-0.0317,-0.0301,-0.0295,-0.0263,-0.0206,-0.02,-0.0171,-0.0135,-0.0132,-0.0081,-0.007,-0.0047,-0.0022,-0.0023,0.0009,0.0026,0.0027,-0.0008,-0.0012,-0.0015,-0.0028,0.0011,0,0,0,0,0,-0.037,-0.0367,-0.032,-0.0318,-0.0305,-0.0254,-0.0236,-0.0208,-0.0169,-0.0152,-0.0113,-0.0075,-0.0043,-0.0026,0.0004,0.0023,0.0055,0.0026,0.0023,0.002,0.0015,0.0061,0.0061,0.0057,0.0057,0.0057,0,0,-0.0385,-0.0363,-0.036,-0.0327,-0.0298,-0.029,-0.0242,-0.0222,-0.0208,-0.015,-0.0125,-0.0087,-0.0042,-0.0018,-0.0007,0.0003,0.0037,0.0019,0.0016,0.0013,0.006,0.0061,0.0061,0.0056,0.0056,0.0056,0,0,-0.0419,-0.0395,-0.0406,-0.0385,-0.0351,-0.0319,-0.0317,-0.0265,-0.0236,-0.0207,-0.0162,-0.0125,-0.008,-0.0041,-0.0018,-0.0024,0.0016,-0.0021,-0.0045,-0.0001,-0.0,0.0001,0.0041,0.0046,-0.0021,-0.0022,-0.0022,0,-0.044,-0.0446,-0.0404,-0.0409,-0.0398,-0.0339,-0.0348,-0.0308,-0.0253,-0.023,-0.0211,-0.0128,-0.0089,-0.0049,-0.005,-0.0031,-0.0004,-0.0032,-0.0005,-0.0003,-0.0001,0.0039,0.0045,-0.0024,-0.0023,-0.0023,-0.0023,0,-0.0482,-0.0485,-0.049,-0.0478,-0.046,-0.0458,-0.0404,-0.0381,-0.0341,-0.0293,-0.0242,-0.0178,-0.0129,-0.0111,-0.008,-0.0049,-0.0033,-0.0015,0.0006,-0.0003,0.004,0.0047,-0.0027,-0.0026,-0.0025,-0.0025,0,0,-0.0531,-0.0524,-0.0525,-0.0537,-0.0498,-0.0492,-0.0469,-0.0429,-0.0416,-0.0344,-0.0312,-0.024,-0.0193,-0.0164,-0.0114,-0.0072,-0.003,-0.0044,-0.0041,-0.0006,0.0064,0.0122,0.0136,-0.0008,-0.0007,-0.0006,0.0089,0,-0.0578,-0.0617,-0.0588,-0.0617,-0.0634,-0.0576,-0.0563,-0.0515,-0.046,-0.0412,-0.0316,-0.0267,-0.0215,-0.019,-0.0139,-0.0056,-0.0013,-0.0057,0.0068,0.0072,0.0125,0.0146,0.0196,0.0289,0.0096,0.0097,0.0098,0,-0.0627,-0.0649,-0.0692,-0.0698,-0.0697,-0.0697,-0.0671,-0.0646,-0.0555,-0.0507,-0.0428,-0.0348,-0.0257,-0.0219,-0.0077,-0.0109,-0.0032,0.0034,0.0039,0.0113,0.0144,0.0268,0.031,0.0471,0.011,0.0109,0.0108,0,-0.0697,-0.0718,-0.0761,-0.0762,-0.0756,-0.0756,-0.074,-0.0676,-0.0657,-0.0556,-0.0528,-0.0403,-0.0335,-0.0222,-0.0066,-0.0077,0.0091,0.0095,0.022,0.0224,0.0303,0.0313,0.0517,0.0184,0.0184,0.0184,0.0184,0,-0.076,-0.0791,-0.0798,-0.0823,-0.0871,-0.0826,-0.0845,-0.0805,-0.074,-0.0719,-0.0579,-0.0533,-0.0334,-0.0205,-0.0079,0.0108,0.0087,0.0224,0.0258,0.0289,0.0296,0.0468,0.0535,0.0187,0.0187,0.0186,0.0185,0,-0.0828,-0.0831,-0.0885,-0.0899,-0.0907,-0.0936,-0.0926,-0.0935,-0.0854,-0.0821,-0.0788,-0.062,-0.0435,-0.023,-0.0025,0.0095,0.0373,0.0326,0.0352,0.0389,0.0643,0.0705,0.0937,0.102,0.0471,0.0473,0.0475,0,-0.0867,-0.0903,-0.0956,-0.1,-0.1008,-0.1039,-0.1063,-0.1002,-0.0997,-0.088,-0.0868,-0.0671,-0.0529,-0.018,0.0094,0.0358,0.0474,0.0538,0.0529,0.0681,0.0775,0.0814,0.0868,0.0614,0.0617,0.0619,0.0621,0,-0.094,-0.0955,-0.1003,-0.1103,-0.1147,-0.1195,-0.1207,-0.1222,-0.1138,-0.1097,-0.0993,-0.0864,-0.0469,-0.0122,0.0259,0.0418,0.0677,0.0591,0.075,0.0912,0.0967,0.1055,0.0521,0.0641,0.0639,0.0638,0.0637,0.0636,-0.0986,-0.1044,-0.1112,-0.1203,-0.1266,-0.1329,-0.1369,-0.1364,-0.1358,-0.127,-0.1105,-0.089,-0.0313,0.0246,0.0445,0.0905,0.0848,0.1013,0.1076,0.1102,0.1192,0.07,0.0857,0.0856,0.0856,0.0855,0.0855,0,-0.1045,-0.1112,-0.1211,-0.1312,-0.1401,-0.1404,-0.1456,-0.148,-0.1488,-0.1334,-0.1196,-0.0596,-0.0049,0.0479,0.1153,0.1373,0.1414,0.1483,0.1555,0.1586,0.1163,0.1179,0.1411,0.1411,0.1411,0.1411,0.1411,0.141,-0.1076,-0.1185,-0.1245,-0.1405,-0.1474,-0.1571,-0.1604,-0.1623,-0.1534,-0.1295,-0.097,-0.0691,0.0137,0.1236,0.1821,0.1855,0.2017,0.2014,0.2087,0.1804,0.1764,0.1726,0.1759,0.2109,0.211,0.2489,0.2493,0.2496]}],[{"header":{"parameterUnit":"m.s-1","parameterCategory":2,"la1":30.2991,"la2":30.254,"lo1":-89.0895,"lo2":-89.0444,"dy":0.0017,"dx":0.0017,"nx":28,"ny":28,"refTime":"2023-03-13T21:00:00:Z","depth":"2","parameterNumber":2,"parameterNumberName":"U-component_of_CURRENTS"},"data":[0,0,0,0,0,0,0,0,0,0,0,0,0,0,0,0,0,0,0,0,0,0,0,0,0,0,0,0,0,0,0,0,0,0,0,0,0,0,0,0,0,0,0,0,0,0,0,0,0,0,0,0,0,0,0,0,0,0,-0.2407,-0.2408,0,-0.2446,-0.2446,-0.2447,-0.2433,-0.2433,-0.2432,-0.2432,-0.2429,-0.2429,-0.243,0,0,0,0,0,0,0,0,0,0,0,0,0,-0.231,-0.2312,-0.2407,-0.2408,-0.2408,-0.2446,-0.2446,-0.2447,-0.2433,-0.2433,-0.2432,-0.2431,-0.2429,-0.2429,-0.243,0,0,0,0,0,0,0,0,0,0,0,0,0,-0.2348,-0.2312,-0.2407,-0.2409,-0.2409,-0.2446,-0.2446,-0.2447,-0.2434,-0.2433,-0.2432,-0.2431,-0.2429,-0.2429,-0.243,-0.2451,0,0,-0.2432,-0.2432,0,0,0,0,0,0,0,0,-0.2346,-0.2351,-0.2408,-0.2409,-0.241,-0.2437,-0.2412,-0.2447,-0.2434,-0.2421,-0.2432,-0.2431,-0.243,-0.2431,-0.2436,-0.2451,-0.2451,-0.2432,-0.2432,-0.2433,-0.2433,0,0,0,0,0,0,0,-0.2343,-0.235,-0.2419,-0.2409,-0.241,-0.2404,-0.2408,-0.2418,-0.2427,-0.2422,-0.2422,-0.2432,-0.243,-0.2436,-0.2436,-0.2451,-0.2432,-0.2433,-0.2433,-0.2433,-0.2492,-0.2493,0,0,0,0,0,0,-0.2347,-0.2348,-0.2418,-0.2421,-0.2379,-0.2407,-0.2412,-0.2426,-0.2428,-0.2428,-0.2432,-0.2431,-0.2435,-0.2435,-0.2436,-0.2472,-0.2433,-0.2433,-0.2434,-0.2491,-0.2492,-0.2493,0,0,0,0,0,0,-0.2345,-0.2353,-0.2417,-0.2387,-0.2395,-0.241,-0.2426,-0.2428,-0.2433,-0.2437,-0.2435,-0.2437,-0.2434,-0.2435,-0.2449,-0.2471,-0.2434,-0.2434,-0.2489,-0.2491,-0.2493,-0.2538,0,0,0,0,0,0,-0.2342,-0.2352,-0.236,-0.2387,-0.2397,-0.2448,-0.2428,-0.2429,-0.2442,-0.244,-0.244,-0.2439,-0.2434,-0.2448,-0.2449,-0.2472,-0.2435,-0.2488,-0.249,-0.2492,-0.2535,-0.2541,-0.2546,0,0,0,0,0,-0.2338,-0.2358,-0.2361,-0.2369,-0.2409,-0.245,-0.2454,-0.2459,-0.2443,-0.2457,-0.2451,-0.2439,-0.2462,-0.2449,-0.2451,-0.2474,-0.2487,-0.2489,-0.2492,-0.2533,-0.254,-0.2546,0,0,0,0,0,0,-0.232,-0.2359,-0.2363,-0.2393,-0.2423,-0.2449,-0.246,-0.2463,-0.247,-0.2461,-0.2453,-0.2453,-0.2475,-0.2469,-0.2455,-0.2498,-0.2473,-0.2476,-0.2504,-0.251,-0.2516,-0.2516,-0.2435,0,0,0,0,0,-0.2321,-0.2342,-0.2383,-0.2404,-0.242,-0.2439,-0.2453,-0.2461,-0.2474,-0.2476,-0.2477,-0.2477,-0.2489,-0.2494,-0.2503,-0.2525,-0.2516,-0.2542,-0.2547,-0.2552,-0.2554,-0.2561,-0.2567,-0.2502,-0.2502,-0.2502,0,0,-0.2317,-0.2343,-0.2353,-0.2401,-0.2418,-0.2455,-0.2444,-0.2473,-0.25,-0.2475,-0.25,-0.2498,-0.25,-0.2526,-0.2536,-0.2522,-0.2567,-0.2555,-0.2559,-0.2558,-0.2564,-0.2571,-0.2576,-0.2503,-0.2503,-0.2503,0,0,-0.2327,-0.2346,-0.2371,-0.2403,-0.2443,-0.2462,-0.2473,-0.2506,-0.2516,-0.2545,-0.2534,-0.2546,-0.2561,-0.2571,-0.2576,-0.2619,-0.2597,-0.2621,-0.2648,-0.2656,-0.2661,-0.2665,-0.2663,-0.2667,-0.2622,-0.2622,-0.2622,0,-0.2319,-0.2359,-0.2384,-0.2423,-0.2448,-0.2468,-0.2504,-0.2528,-0.256,-0.2572,-0.2558,-0.2586,-0.2586,-0.262,-0.2632,-0.2632,-0.2624,-0.2622,-0.2662,-0.2666,-0.267,-0.2666,-0.267,-0.2625,-0.2624,-0.2624,-0.2624,0,-0.2354,-0.2387,-0.2405,-0.2458,-0.2493,-0.2525,-0.257,-0.2596,-0.2603,-0.2623,-0.2654,-0.2655,-0.2667,-0.2675,-0.2664,-0.2698,-0.268,-0.2669,-0.2643,-0.2679,-0.2673,-0.2676,-0.2628,-0.2627,-0.2627,-0.2626,0,0,-0.2323,-0.2411,-0.2415,-0.2448,-0.2512,-0.2545,-0.2596,-0.2647,-0.2678,-0.2697,-0.2731,-0.2748,-0.2737,-0.2742,-0.2735,-0.2741,-0.2761,-0.2714,-0.2714,-0.2708,-0.2768,-0.2748,-0.2748,-0.2752,-0.2753,-0.2754,-0.2753,0,-0.2336,-0.2407,-0.2451,-0.2513,-0.2553,-0.2597,-0.2646,-0.2695,-0.2725,-0.2764,-0.277,-0.2795,-0.2768,-0.277,-0.2776,-0.2771,-0.2771,-0.2762,-0.2737,-0.2736,-0.2711,-0.2752,-0.2521,-0.2501,-0.2756,-0.2756,-0.2756,0,-0.2347,-0.2396,-0.246,-0.2546,-0.2567,-0.2606,-0.2679,-0.2728,-0.2792,-0.2814,-0.2836,-0.2842,-0.2863,-0.2828,-0.2831,-0.2824,-0.2795,-0.2784,-0.2784,-0.275,-0.2722,-0.2506,-0.2496,-0.2761,-0.2761,-0.276,-0.276,0,-0.2303,-0.2397,-0.2443,-0.2473,-0.2577,-0.2606,-0.2653,-0.2729,-0.2774,-0.2835,-0.2863,-0.289,-0.2899,-0.2882,-0.2858,-0.2842,-0.2856,-0.2832,-0.2786,-0.2783,-0.2575,-0.2554,-0.2823,-0.2823,-0.2823,-0.2823,-0.2823,0,-0.2294,-0.2329,-0.2424,-0.245,-0.2504,-0.2583,-0.264,-0.2695,-0.2776,-0.2822,-0.287,-0.2901,-0.291,-0.292,-0.2884,-0.2852,-0.2874,-0.2799,-0.2788,-0.2586,-0.2567,-0.2781,-0.2776,-0.2823,-0.2823,-0.2823,-0.2823,0,-0.2233,-0.23,-0.2354,-0.2454,-0.2483,-0.2514,-0.2616,-0.2657,-0.2746,-0.2805,-0.2823,-0.2911,-0.2932,-0.2939,-0.2927,-0.2883,-0.2857,-0.2832,-0.2598,-0.2561,-0.2769,-0.2766,-0.2784,-0.2784,-0.2783,-0.2783,-0.2783,0,-0.2209,-0.223,-0.2326,-0.2346,-0.2384,-0.2447,-0.2488,-0.2608,-0.2655,-0.2798,-0.2814,-0.2888,-0.2917,-0.2924,-0.2859,-0.2812,-0.2852,-0.257,-0.2507,-0.278,-0.2768,-0.2766,-0.2765,-0.2238,-0.2233,-0.2229,-0.2226,0,-0.2141,-0.2169,-0.2203,-0.2257,-0.2296,-0.235,-0.2419,-0.2459,-0.2597,-0.2672,-0.2762,-0.281,-0.2843,-0.2716,-0.2682,-0.261,-0.2567,-0.2493,-0.2823,-0.2307,-0.2271,-0.2258,-0.2272,-0.2191,-0.2194,-0.2197,-0.2199,-0.22,-0.2058,-0.206,-0.2102,-0.214,-0.2185,-0.2215,-0.2222,-0.2322,-0.2396,-0.2474,-0.2606,-0.2609,-0.2602,-0.2459,-0.235,-0.225,-0.242,-0.2274,-0.2282,-0.2296,-0.2256,-0.2224,-0.2126,-0.2129,-0.2132,-0.2134,-0.2136,0,-0.1948,-0.1962,-0.1986,-0.2021,-0.2013,-0.2087,-0.2145,-0.2125,-0.2169,-0.2275,-0.2343,-0.2139,-0.2088,-0.2081,-0.1887,-0.1866,-0.1802,-0.1771,-0.1665,-0.1702,-0.1734,-0.1662,-0.1376,-0.1374,-0.1372,-0.137,0,0,-0.1887,-0.1863,-0.1882,-0.1831,-0.1851,-0.1803,-0.1804,-0.1806,-0.1845,-0.1828,-0.1839,-0.2017,-0.2053,-0.1722,-0.164,-0.1482,-0.1573,-0.1409,-0.2019,-0.1932,-0.1961,-0.2027,-0.196,0,0,0,0,0]},{"header":{"parameterUnit":"m.s-1","parameterCategory":2,"la1":30.2991,"la2":30.254,"lo1":-89.0895,"lo2":-89.0444,"dy":0.0017,"dx":0.0017,"nx":28,"ny":28,"refTime":"2023-03-13T21:00:00:Z","depth":"2","parameterNumber":3,"parameterNumberName":"V-component_of_CURRENTS"},"data":[0,0,0,0,0,0,0,0,0,0,0,0,0,0,0,0,0,0,0,0,0,0,0,0,0,0,0,0,0,0,0,0,0,0,0,0,0,0,0,0,0,0,0,0,0,0,0,0,0,0,0,0,0,0,0,0,0,0,-0.0192,-0.0191,0,-0.0098,-0.0097,-0.0096,-0.0037,-0.0037,-0.0037,-0.0037,0.0049,0.0051,0.0053,0,0,0,0,0,0,0,0,0,0,0,0,0,-0.0262,-0.0261,-0.0192,-0.0191,-0.0189,-0.0098,-0.0097,-0.0096,-0.0037,-0.0037,-0.0037,-0.0037,0.0049,0.0051,0.0054,0,0,0,0,0,0,0,0,0,0,0,0,0,-0.0206,-0.0261,-0.0192,-0.015,-0.0145,-0.0099,-0.0097,-0.0095,-0.0038,-0.0037,-0.0037,-0.0036,0.0048,0.0051,0.0054,0.0066,0,0,0.0063,0.0065,0,0,0,0,0,0,0,0,-0.0209,-0.0203,-0.0157,-0.0153,-0.0148,-0.008,-0.009,-0.0042,-0.0038,-0.0078,-0.0037,-0.0036,0.0005,0.0011,0.0029,0.007,0.0073,0.0064,0.0066,0.0067,0.0068,0,0,0,0,0,0,0,-0.0213,-0.0207,-0.0154,-0.0156,-0.015,-0.0116,-0.0108,-0.008,-0.0039,-0.0074,-0.007,-0.0061,0.0007,0.0026,0.0032,0.0075,0.0064,0.0066,0.0068,0.0069,0.0125,0.0125,0,0,0,0,0,0,-0.023,-0.0211,-0.0157,-0.0151,-0.0179,-0.0116,-0.0107,-0.0101,-0.0039,-0.003,-0.0061,-0.0059,0.0021,0.0028,0.0035,0.0049,0.0067,0.007,0.0072,0.0125,0.0125,0.0125,0,0,0,0,0,0,-0.0232,-0.0226,-0.0161,-0.0179,-0.0168,-0.0115,-0.0109,-0.01,-0.0081,-0.003,-0.002,-0.0054,0.0021,0.0031,0.0058,0.0053,0.0071,0.0074,0.0126,0.0125,0.0125,0.0079,0,0,0,0,0,0,-0.0234,-0.0227,-0.0232,-0.018,-0.0168,-0.0143,-0.011,-0.0098,-0.0077,-0.0072,-0.002,-0.0011,0.0022,0.0053,0.0061,0.0057,0.0076,0.0126,0.0126,0.0125,0.0081,0.0077,0.0073,0,0,0,0,0,-0.0237,-0.0246,-0.0233,-0.0226,-0.0175,-0.0144,-0.0135,-0.0094,-0.0077,-0.0075,-0.0036,-0.0013,0.0054,0.0056,0.0065,0.0062,0.0127,0.0126,0.0125,0.0082,0.0077,0.0073,0,0,0,0,0,0,-0.0278,-0.024,-0.0224,-0.0221,-0.019,-0.0135,-0.0129,-0.0101,-0.0067,-0.0064,-0.0013,-0.0002,0.0019,0.0044,0.0045,0.0075,0.0092,0.0093,0.0057,0.0052,0.0049,0.0037,0.0079,0,0,0,0,0,-0.0291,-0.0289,-0.0244,-0.0243,-0.0231,-0.0182,-0.0165,-0.0138,-0.01,-0.0084,-0.0045,-0.0008,0.0023,0.004,0.007,0.0087,0.0119,0.009,0.0086,0.0082,0.0079,0.0123,0.0124,0.0122,0.0122,0.0122,0,0,-0.0306,-0.0285,-0.0284,-0.0252,-0.0225,-0.0218,-0.0171,-0.0152,-0.014,-0.0081,-0.0058,-0.0021,0.0025,0.0046,0.0058,0.0067,0.0099,0.0081,0.0078,0.0077,0.0123,0.0123,0.0123,0.0121,0.0121,0.0121,0,0,-0.0341,-0.0319,-0.0331,-0.0311,-0.0278,-0.0247,-0.0246,-0.0196,-0.0168,-0.0141,-0.0096,-0.0061,-0.0016,0.0021,0.0045,0.0036,0.0077,0.004,0.0015,0.0058,0.0059,0.006,0.0098,0.0103,0.0039,0.0039,0.0039,0,-0.0363,-0.037,-0.033,-0.0335,-0.0325,-0.0267,-0.0277,-0.0239,-0.0186,-0.0163,-0.0145,-0.0064,-0.0026,0.0012,0.0011,0.0029,0.0057,0.0029,0.0053,0.0055,0.0057,0.0097,0.0103,0.0036,0.0037,0.0037,0.0037,0,-0.0406,-0.041,-0.0415,-0.0405,-0.0388,-0.0387,-0.0335,-0.0314,-0.0274,-0.0228,-0.0179,-0.0116,-0.0068,-0.0051,-0.0021,0.0009,0.0026,0.0043,0.0065,0.0054,0.0097,0.0104,0.0033,0.0034,0.0035,0.0035,0,0,-0.0456,-0.045,-0.0451,-0.0463,-0.0426,-0.0421,-0.04,-0.0361,-0.0349,-0.0279,-0.0248,-0.018,-0.0134,-0.0105,-0.0056,-0.0015,0.0025,0.0013,0.0016,0.0051,0.0117,0.017,0.0184,0.0046,0.0047,0.0048,0.0141,0,-0.0503,-0.0542,-0.0514,-0.0543,-0.056,-0.0504,-0.0492,-0.0446,-0.0393,-0.0347,-0.0253,-0.0206,-0.0156,-0.0132,-0.0082,0.0,0.0041,-0.0002,0.0123,0.0126,0.0175,0.0193,0.0163,0.0247,0.0148,0.015,0.0151,0,-0.0552,-0.0574,-0.0617,-0.0622,-0.0622,-0.0623,-0.0598,-0.0575,-0.0487,-0.044,-0.0363,-0.0285,-0.0198,-0.016,-0.0022,-0.0052,0.0022,0.0087,0.0092,0.0163,0.0193,0.0243,0.0264,0.0163,0.0162,0.0161,0.016,0,-0.062,-0.0642,-0.0684,-0.0685,-0.068,-0.0681,-0.0666,-0.0604,-0.0586,-0.0488,-0.0461,-0.0339,-0.0273,-0.0162,-0.0011,-0.0021,0.0143,0.0147,0.0266,0.027,0.0281,0.0285,0.0235,0.0234,0.0234,0.0234,0.0234,0,-0.0682,-0.0713,-0.0721,-0.0745,-0.0792,-0.0749,-0.0768,-0.073,-0.0667,-0.0647,-0.0511,-0.0466,-0.0272,-0.0146,-0.0023,0.0157,0.0139,0.0269,0.0303,0.0264,0.0266,0.0219,0.0215,0.0238,0.0237,0.0236,0.0235,0,-0.0748,-0.0751,-0.0805,-0.0819,-0.0828,-0.0856,-0.0847,-0.0856,-0.0778,-0.0746,-0.0714,-0.055,-0.0371,-0.0172,0.0028,0.0144,0.0306,0.0369,0.0316,0.0342,0.0401,0.0394,0.0501,0.0504,0.0507,0.0509,0.051,0,-0.0786,-0.0821,-0.0874,-0.0917,-0.0926,-0.0956,-0.098,-0.0921,-0.0916,-0.0803,-0.0791,-0.06,-0.0463,-0.0124,0.013,0.0382,0.0372,0.0489,0.0469,0.0409,0.0431,0.042,0.0411,0.046,0.0461,0.0462,0.0463,0,-0.0857,-0.0873,-0.0919,-0.1017,-0.1061,-0.1107,-0.1119,-0.1133,-0.1052,-0.1012,-0.0912,-0.0787,-0.0417,-0.012,0.0243,0.0382,0.0451,0.0516,0.0477,0.0401,0.0379,0.0397,0.0387,0.0471,0.047,0.0469,0.0469,0.0468,-0.0902,-0.0958,-0.1025,-0.1114,-0.1176,-0.1236,-0.1274,-0.1266,-0.1259,-0.1167,-0.1018,-0.0806,-0.0462,0.0046,0.0309,0.0559,0.0545,0.0593,0.0586,0.0579,0.0561,0.0545,0.0664,0.0665,0.0665,0.0665,0.0665,0,-0.0957,-0.1024,-0.112,-0.1218,-0.1302,-0.1309,-0.1358,-0.1367,-0.1369,-0.1221,-0.1087,-0.0726,-0.0349,0.0004,0.0406,0.0646,0.0619,0.0679,0.0592,0.0584,0.0576,0.0555,0.0659,0.0659,0.066,0.066,0,0,-0.0987,-0.1092,-0.1149,-0.1302,-0.1372,-0.146,-0.1492,-0.1483,-0.1388,-0.1268,-0.1089,-0.0794,-0.0348,-0.007,0.0253,0.0463,0.0456,0.0484,0.0466,0.0318,0.0308,0.0508,0.0465,0,0,0,0,0]}],[{"header":{"parameterUnit":"m.s-1","parameterCategory":2,"la1":30.2991,"la2":30.254,"lo1":-89.0895,"lo2":-89.0444,"dy":0.0017,"dx":0.0017,"nx":28,"ny":28,"refTime":"2023-03-13T21:00:00:Z","depth":"4","parameterNumber":2,"parameterNumberName":"U-component_of_CURRENTS"},"data":[0,0,0,0,0,0,0,0,0,0,0,0,0,0,0,0,0,0,0,0,0,0,0,0,0,0,0,0,0,0,0,0,0,0,0,0,0,0,0,0,0,0,0,0,0,0,0,0,0,0,0,0,0,0,0,0,0,0,-0.1669,-0.167,0,-0.1744,-0.1744,-0.1745,-0.1791,-0.1791,-0.1791,-0.1792,-0.1891,-0.1893,-0.1895,0,0,0,0,0,0,0,0,0,0,0,0,0,-0.1566,-0.1567,-0.1668,-0.167,-0.1671,-0.1744,-0.1744,-0.1745,-0.1791,-0.1791,-0.1792,-0.1792,-0.189,-0.1893,-0.1895,0,0,0,0,0,0,0,0,0,0,0,0,0,-0.1621,-0.1568,-0.1668,-0.1703,-0.1707,-0.1743,-0.1744,-0.1746,-0.1791,-0.1791,-0.1792,-0.1792,-0.1889,-0.1892,-0.1896,-0.1905,0,0,-0.1906,-0.1908,0,0,0,0,0,0,0,0,-0.1618,-0.1624,-0.1697,-0.1701,-0.1706,-0.176,-0.1745,-0.1801,-0.179,-0.1757,-0.1792,-0.1792,-0.185,-0.1857,-0.1867,-0.191,-0.1914,-0.1907,-0.1909,-0.191,-0.1911,0,0,0,0,0,0,0,-0.1614,-0.1621,-0.1697,-0.1698,-0.1704,-0.1716,-0.1724,-0.1755,-0.1798,-0.176,-0.1764,-0.1775,-0.1852,-0.1863,-0.1869,-0.1916,-0.1906,-0.1909,-0.1912,-0.1913,-0.2054,-0.2055,0,0,0,0,0,0,-0.1607,-0.1618,-0.1694,-0.1699,-0.1664,-0.1717,-0.1727,-0.174,-0.1798,-0.1807,-0.1774,-0.1777,-0.1857,-0.1865,-0.1873,-0.1969,-0.191,-0.1913,-0.1915,-0.2052,-0.2054,-0.2056,0,0,0,0,0,0,-0.1605,-0.1614,-0.1691,-0.1661,-0.1672,-0.1719,-0.1734,-0.1742,-0.1782,-0.1809,-0.1819,-0.181,-0.1858,-0.1868,-0.193,-0.197,-0.1915,-0.1918,-0.205,-0.2053,-0.2055,-0.2108,0,0,0,0,0,0,-0.1602,-0.1612,-0.1634,-0.1661,-0.1674,-0.1736,-0.1734,-0.1743,-0.1787,-0.1791,-0.1842,-0.185,-0.1859,-0.1925,-0.1934,-0.1973,-0.1921,-0.2048,-0.2051,-0.2054,-0.2104,-0.2112,-0.2119,0,0,0,0,0,-0.1598,-0.1621,-0.1634,-0.1645,-0.1697,-0.1738,-0.1746,-0.1779,-0.1788,-0.1815,-0.185,-0.185,-0.1951,-0.193,-0.1939,-0.1981,-0.2046,-0.205,-0.2054,-0.2101,-0.211,-0.2119,0,0,0,0,0,0,-0.159,-0.1629,-0.1644,-0.168,-0.1718,-0.1747,-0.1776,-0.1795,-0.1843,-0.1854,-0.1874,-0.1885,-0.1953,-0.196,-0.1935,-0.203,-0.1998,-0.2004,-0.2031,-0.204,-0.2047,-0.2039,-0.1923,0,0,0,0,0,-0.1596,-0.1625,-0.1663,-0.1695,-0.1715,-0.175,-0.1776,-0.18,-0.1838,-0.186,-0.1896,-0.1933,-0.1971,-0.2,-0.2032,-0.2087,-0.2075,-0.2119,-0.2127,-0.2133,-0.2133,-0.2149,-0.2157,-0.2069,-0.2069,-0.2068,0,0,-0.1602,-0.1628,-0.1645,-0.1696,-0.1725,-0.1767,-0.1768,-0.1816,-0.186,-0.1863,-0.194,-0.1964,-0.1991,-0.2052,-0.2083,-0.2067,-0.2153,-0.2138,-0.2143,-0.214,-0.2154,-0.2162,-0.217,-0.2071,-0.2071,-0.207,0,0,-0.1618,-0.1651,-0.168,-0.1717,-0.1771,-0.1795,-0.1816,-0.1867,-0.1904,-0.197,-0.1983,-0.2031,-0.2094,-0.212,-0.2139,-0.2207,-0.2189,-0.2222,-0.2258,-0.2274,-0.2281,-0.2287,-0.228,-0.2285,-0.2228,-0.2228,-0.2228,0,-0.1625,-0.1665,-0.1697,-0.1736,-0.1772,-0.1812,-0.1856,-0.1899,-0.1967,-0.2001,-0.2006,-0.2099,-0.2125,-0.2189,-0.2213,-0.2224,-0.2219,-0.2222,-0.2282,-0.2288,-0.2293,-0.2285,-0.229,-0.2231,-0.223,-0.223,-0.223,0,-0.1656,-0.1703,-0.1725,-0.1787,-0.1832,-0.1877,-0.1936,-0.1991,-0.2035,-0.2072,-0.2154,-0.2185,-0.2235,-0.2256,-0.2258,-0.2316,-0.2295,-0.2287,-0.2255,-0.2305,-0.2293,-0.2297,-0.2235,-0.2234,-0.2233,-0.2232,0,0,-0.1627,-0.1727,-0.1737,-0.1781,-0.1864,-0.1901,-0.1982,-0.2058,-0.2114,-0.2177,-0.2241,-0.2305,-0.2315,-0.2336,-0.2348,-0.2365,-0.2399,-0.2345,-0.2345,-0.233,-0.2419,-0.228,-0.227,-0.24,-0.2401,-0.2402,-0.2394,0,-0.1643,-0.172,-0.1771,-0.1856,-0.19,-0.197,-0.2041,-0.2118,-0.2182,-0.2256,-0.2296,-0.2359,-0.2349,-0.2376,-0.2395,-0.2404,-0.2412,-0.2401,-0.238,-0.2379,-0.2243,-0.2272,-0.2406,-0.2397,-0.2398,-0.2398,-0.2399,0,-0.1647,-0.1703,-0.1785,-0.1896,-0.1924,-0.1986,-0.21,-0.2169,-0.2272,-0.2322,-0.2381,-0.2412,-0.2463,-0.2439,-0.2468,-0.2461,-0.2443,-0.2437,-0.2436,-0.2288,-0.2247,-0.2339,-0.2405,-0.2405,-0.2404,-0.2404,-0.2404,0,-0.1595,-0.1709,-0.1776,-0.1815,-0.1945,-0.2005,-0.2076,-0.2189,-0.2252,-0.236,-0.2405,-0.2468,-0.2502,-0.2502,-0.2493,-0.2486,-0.2504,-0.249,-0.2344,-0.2334,-0.2438,-0.2432,-0.2495,-0.2495,-0.2495,-0.2496,-0.2496,0,-0.1571,-0.163,-0.1765,-0.1802,-0.1891,-0.199,-0.2088,-0.2169,-0.2282,-0.234,-0.2428,-0.2463,-0.252,-0.2535,-0.2513,-0.2433,-0.2517,-0.2346,-0.2323,-0.2461,-0.2457,-0.244,-0.2434,-0.2495,-0.2495,-0.2495,-0.2495,0,-0.1496,-0.1587,-0.1671,-0.1818,-0.1868,-0.1929,-0.208,-0.2138,-0.2259,-0.2334,-0.2366,-0.2472,-0.2485,-0.2514,-0.2519,-0.244,-0.2393,-0.2343,-0.2484,-0.247,-0.2207,-0.2204,-0.2171,-0.2166,-0.2162,-0.2159,-0.2156,0,-0.1461,-0.1498,-0.1657,-0.1703,-0.1774,-0.1883,-0.1949,-0.2102,-0.2154,-0.2309,-0.232,-0.2397,-0.2439,-0.2333,-0.2382,-0.2328,-0.2299,-0.2257,-0.2229,-0.2192,-0.2174,-0.2178,-0.2181,-0.2149,-0.2148,-0.2147,-0.2146,0,-0.1384,-0.1451,-0.1515,-0.1615,-0.1698,-0.1778,-0.1883,-0.191,-0.2065,-0.2199,-0.2212,-0.2218,-0.2234,-0.2231,-0.2208,-0.2168,-0.2277,-0.2212,-0.222,-0.2194,-0.2165,-0.2152,-0.2159,-0.2131,-0.2133,-0.2134,-0.2135,0,-0.1316,-0.1338,-0.1429,-0.15,-0.1594,-0.1632,-0.1714,-0.1774,-0.185,-0.2024,-0.2022,-0.2106,-0.221,-0.2147,-0.2125,-0.208,-0.2042,-0.1966,-0.1987,-0.2003,-0.1952,-0.1891,-0.1748,0,0,0,0,0,-0.1239,-0.125,-0.1306,-0.1378,-0.1462,-0.1518,-0.1646,-0.1729,-0.1883,-0.1841,-0.1929,-0.1933,-0.1919,-0.197,-0.1883,-0.2038,-0.2043,-0.1929,-0.1966,-0.205,-0.2067,-0.2021,0,0,0,0,0,0,-0.1188,-0.1233,-0.1258,-0.1251,-0.1272,-0.1353,-0.1424,-0.1535,-0.1528,-0.1688,-0.169,-0.181,-0.1822,-0.1932,-0.184,-0.1852,-0.1834,-0.1993,-0.1988,-0.204,-0.2056,-0.2069,-0.2028,0,0,0,0,0]},{"header":{"parameterUnit":"m.s-1","parameterCategory":2,"la1":30.2991,"la2":30.254,"lo1":-89.0895,"lo2":-89.0444,"dy":0.0017,"dx":0.0017,"nx":28,"ny":28,"refTime":"2023-03-13T21:00:00:Z","depth":"4","parameterNumber":3,"parameterNumberName":"V-component_of_CURRENTS"},"data":[0,0,0,0,0,0,0,0,0,0,0,0,0,0,0,0,0,0,0,0,0,0,0,0,0,0,0,0,0,0,0,0,0,0,0,0,0,0,0,0,0,0,0,0,0,0,0,0,0,0,0,0,0,0,0,0,0,0,-0.0102,-0.0101,0,-0.004,-0.0039,-0.0039,0.0008,0.0008,0.0008,0.0009,0.0082,0.0084,0.0085,0,0,0,0,0,0,0,0,0,0,0,0,0,-0.0131,-0.0131,-0.0102,-0.0101,-0.0101,-0.004,-0.0039,-0.0038,0.0008,0.0008,0.0008,0.0009,0.0082,0.0084,0.0086,0,0,0,0,0,0,0,0,0,0,0,0,0,-0.0098,-0.0131,-0.0102,-0.0071,-0.0068,-0.004,-0.0039,-0.0038,0.0008,0.0008,0.0009,0.0009,0.0081,0.0083,0.0086,0.0092,0,0,0.0093,0.0095,0,0,0,0,0,0,0,0,-0.01,-0.0097,-0.0076,-0.0073,-0.007,-0.0024,-0.0023,0.0006,0.0008,-0.002,0.0009,0.0009,0.0046,0.0052,0.0064,0.0096,0.0099,0.0094,0.0095,0.0096,0.0097,0,0,0,0,0,0,0,-0.0102,-0.0099,-0.0076,-0.0076,-0.0072,-0.0044,-0.0039,-0.0017,0.0011,-0.0017,-0.0014,-0.0009,0.0049,0.0061,0.0066,0.01,0.0094,0.0096,0.0097,0.0098,0.0141,0.014,0,0,0,0,0,0,-0.0116,-0.0101,-0.0078,-0.0074,-0.0085,-0.0044,-0.0038,-0.0038,0.0011,0.0018,-0.001,-0.0007,0.0057,0.0063,0.0069,0.0076,0.0096,0.0099,0.01,0.0141,0.0141,0.014,0,0,0,0,0,0,-0.0116,-0.0114,-0.0081,-0.0087,-0.0081,-0.0045,-0.0044,-0.0037,-0.0025,0.0016,0.0024,-0.0005,0.0058,0.0065,0.0087,0.0079,0.01,0.0102,0.0142,0.0141,0.014,0.0093,0,0,0,0,0,0,-0.0118,-0.0115,-0.0122,-0.0088,-0.0081,-0.0074,-0.0045,-0.0037,-0.0023,-0.0019,0.0023,0.0031,0.0058,0.0083,0.0089,0.0083,0.0104,0.0142,0.0141,0.0141,0.0095,0.009,0.0087,0,0,0,0,0,-0.0119,-0.0132,-0.0123,-0.012,-0.0091,-0.0074,-0.0068,-0.0039,-0.0024,-0.0025,0.0008,0.0029,0.0083,0.0085,0.0092,0.0087,0.0142,0.0142,0.0141,0.0096,0.0091,0.0087,0,0,0,0,0,0,-0.0148,-0.0128,-0.0117,-0.0123,-0.0104,-0.0067,-0.0067,-0.0045,-0.0019,-0.0015,0.0027,0.0037,0.0053,0.0075,0.0076,0.0096,0.0115,0.0116,0.0079,0.0074,0.007,0.0063,0.0106,0,0,0,0,0,-0.0159,-0.0165,-0.0137,-0.0143,-0.0137,-0.0103,-0.0092,-0.0073,-0.0045,-0.0033,-0.0002,0.0029,0.0055,0.0068,0.0093,0.0104,0.0134,0.0104,0.01,0.0097,0.0096,0.0134,0.0134,0.0138,0.0138,0.0138,0,0,-0.0173,-0.0162,-0.0165,-0.015,-0.0133,-0.0134,-0.0095,-0.0086,-0.0081,-0.003,-0.0016,0.0016,0.0055,0.007,0.0078,0.0087,0.0111,0.0096,0.0092,0.0094,0.0134,0.0133,0.0133,0.0137,0.0137,0.0137,0,0,-0.0205,-0.0194,-0.0209,-0.0198,-0.018,-0.0159,-0.016,-0.0127,-0.0107,-0.0089,-0.005,-0.0022,0.0013,0.0043,0.0062,0.005,0.0089,0.0054,0.003,0.0067,0.0067,0.0068,0.0102,0.0106,0.0052,0.0052,0.0052,0,-0.0223,-0.0237,-0.0211,-0.0221,-0.0218,-0.0176,-0.019,-0.0164,-0.0127,-0.0111,-0.0095,-0.003,0.0001,0.003,0.0027,0.0042,0.0069,0.0044,0.0062,0.0063,0.0065,0.01,0.0105,0.0049,0.005,0.005,0.005,0,-0.0263,-0.0274,-0.0282,-0.0283,-0.0276,-0.0281,-0.0247,-0.0235,-0.0205,-0.0171,-0.0134,-0.0083,-0.0044,-0.0031,-0.0004,0.002,0.0038,0.0053,0.0074,0.0062,0.0099,0.0105,0.0046,0.0047,0.0048,0.0048,0,0,-0.03,-0.0311,-0.0313,-0.0328,-0.031,-0.0311,-0.0303,-0.028,-0.0274,-0.0222,-0.02,-0.0146,-0.0106,-0.0082,-0.004,-0.0005,0.0028,0.0023,0.0026,0.0056,0.0109,0.0114,0.0121,0.0047,0.0048,0.0049,0.013,0,-0.034,-0.0382,-0.0369,-0.0403,-0.0422,-0.0386,-0.0385,-0.0355,-0.0316,-0.0284,-0.0208,-0.0171,-0.0128,-0.0108,-0.0066,0.0008,0.0042,0.0004,0.0118,0.0121,0.0126,0.0128,0.0051,0.0135,0.0137,0.0138,0.0139,0,-0.0379,-0.0405,-0.0451,-0.047,-0.0473,-0.0485,-0.0475,-0.0464,-0.0401,-0.0365,-0.0304,-0.024,-0.0168,-0.0134,-0.0014,-0.004,0.0026,0.0084,0.0088,0.0114,0.0137,0.0152,0.015,0.0149,0.0148,0.0148,0.0147,0,-0.0422,-0.0457,-0.0501,-0.0507,-0.0521,-0.0532,-0.053,-0.0491,-0.0482,-0.0408,-0.0387,-0.0287,-0.0233,-0.0136,-0.0005,-0.0012,0.013,0.0135,0.0202,0.0203,0.0197,0.0195,0.0212,0.0211,0.0211,0.0211,0.0211,0,-0.0463,-0.0497,-0.0529,-0.0553,-0.0604,-0.0584,-0.0613,-0.059,-0.055,-0.0538,-0.0431,-0.0393,-0.0231,-0.0123,-0.0015,0.012,0.0125,0.02,0.0226,0.0174,0.0169,0.0201,0.0199,0.0214,0.0213,0.0213,0.0212,0,-0.0496,-0.0517,-0.0574,-0.0611,-0.0628,-0.066,-0.0679,-0.0692,-0.0642,-0.062,-0.0596,-0.0462,-0.0318,-0.0154,0.002,0.0101,0.0231,0.0277,0.0215,0.0235,0.0279,0.0273,0.0345,0.0346,0.0347,0.0347,0.0348,0,-0.0515,-0.0549,-0.0624,-0.0671,-0.0692,-0.0737,-0.0769,-0.0742,-0.0741,-0.0664,-0.065,-0.0506,-0.0402,-0.0149,0.002,0.0237,0.0263,0.0326,0.0295,0.0276,0.0293,0.0286,0.0279,0.0349,0.0349,0.0349,0.035,0,-0.0549,-0.0579,-0.0628,-0.0729,-0.0785,-0.084,-0.0869,-0.0876,-0.083,-0.0793,-0.0688,-0.0538,-0.0369,-0.0159,0.0026,0.0175,0.0282,0.0333,0.0332,0.0304,0.0281,0.0296,0.0289,0.0352,0.0352,0.0352,0.0351,0,-0.0569,-0.0616,-0.069,-0.0772,-0.0855,-0.091,-0.0924,-0.0909,-0.0894,-0.0794,-0.0763,-0.0565,-0.044,-0.0191,-0.0028,0.0134,0.0157,0.0187,0.0194,0.0193,0.0128,0.0076,0.0106,0,0,0,0,0,-0.0582,-0.064,-0.0729,-0.0816,-0.09,-0.0943,-0.0977,-0.0971,-0.0929,-0.0869,-0.081,-0.0647,-0.0381,-0.0255,-0.0097,-0.0028,0.0177,0.016,0.0212,0.0366,0.0363,0.0314,0,0,0,0,0,0,-0.0594,-0.0676,-0.0727,-0.0832,-0.0899,-0.0978,-0.1005,-0.098,-0.0928,-0.0866,-0.072,-0.0625,-0.0361,-0.0472,-0.0099,-0.0047,0.0002,0.0296,0.0299,0.0368,0.0365,0.0363,0.0311,0,0,0,0,0]}]]